Location: Brodeslavy
(49.9527°N, 13.5567°E)
Time: 04:14:49
(UTC+00:00)

Okean 1-7 - Pass Details

Date: 17 June 2025
Orbit: 569 x 592 km, 82.5° (Epoch: 12 July)

Event Time Altitude Azimuth Distance (km) Brightness Sun altitude
Exits shadow 22:35:20 19° 222° (SW) 1,389 4.5 -16.3°
Maximum altitude 22:37:57 42° 285° (WNW) 822 3.8 -16.4°
Drops below altitude 10° 22:41:55 10° 358° (N) 1,885 6.9 -16.4°
Sets 22:44:12 0° 5° (N) 2,788 8.1 -16.5°
